Погода в Сотникове

Россия / Липецкая область     52°58′32″N   38°42′16″E
темп.,
°C
ветер,
м/с
пор.,
м/с
влажн.,
%
обл.,
%
осадки,
мм/ч
давл.,
гПа
погр.,
м
17 апреля, сб
сб1700:00+10зсз22746 0.0 101814
03:00+9ссв12765 0.0 101818
06:00+9ссв3375100 0.0 101863
09:00+11вюв3676100 0.1 1017486
12:00+10юв2374100 1.1 1017448
15:00+9юв4790100 6.2 1018480
18:00+8зюз3488100 4.1 1017339
21:00+7з1290100 4.3 101839
18 апреля, вс
вс1800:00+6з1191100 0.0 101910
03:00+5ююз229259 0.0 101913
06:00+5ююз229294 0.0 101923
09:00+8ю1279100 0.0 1019455
12:00+9ю1266100 0.3 1020593
15:00+11ююв2354100 0.3 10201329
18:00+11ююв235780 0.1 1020432
21:00+9ю126797 0.3 102018
19 апреля, пн
пн1900:00+7ююз11735 0.0 102110
03:00+6в227597 0.0 102010
06:00+6в227596 0.0 102012
09:00+10всв3461100 0.0 1020405
12:00+12всв445699 0.0 10191292
15:00+10св787782 0.6 1019794
18:00+8всв81287100 0.8 1019817
21:00+7в71389100 2.4 1020677
20 апреля, вт
вт2000:00+6в71290100 1.9 1019555
03:00+5всв71394100 5.6 1017570
06:00+6в71594100 3.2 1015668
09:00+6в81693100 6.1 1013804
12:00+6в91693100 2.3 1012787
15:00+6в101994100 8.5 1007970
18:00+7вюв132492100 7.5 10031343
21:00+9вюв122290100 8.4 10011184
21 апреля, ср
ср2100:00+11юв11198056 0.8 10001166
03:00+9ююв111883100 0.9 9991332
06:00+8ю121990100 1.4 9991657
09:00+5ю111795100 1.9 10031180
12:00+6ююз101681100 0.1 10081274
15:00+7юз91579100 0.2 10111450
18:00+7ююз71281100 0.1 1014974
21:00+7ююз61282100 0.1 1017512